Time,TemperatureF,DewpointF,PressureIn,WindDirection,WindDirectionDegrees,WindSpeedMPH,WindSpeedGustMPH,Humidity,HourlyPrecipIn,Conditions,Clouds,dailyrainin,SoftwareType,DateUTC
2013-07-05 00:02:00,62.0,51.0,29.99,West,277,9.0,15.0,67,-99.99,,,-99.99,,2013-07-05 07:02:00,
2013-07-05 00:12:00,62.0,51.0,29.99,West,281,10.0,18.0,67,-99.99,,,-99.99,,2013-07-05 07:12:00,
2013-07-05 00:33:00,61.0,51.0,29.99,WNW,290,9.0,15.0,68,-99.99,,,-99.99,,2013-07-05 07:33:00,
2013-07-05 00:43:00,61.0,51.0,29.99,WNW,292,8.0,11.0,69,-99.99,,,-99.99,,2013-07-05 07:43:00,
2013-07-05 00:53:00,61.0,51.0,29.99,West,281,10.0,16.0,69,-99.99,,,-99.99,,2013-07-05 07:53:00,
2013-07-05 01:02:00,60.0,50.0,29.99,WNW,293,9.0,14.0,69,-99.99,,,-99.99,,2013-07-05 08:02:00,
2013-07-05 01:12:00,60.0,51.0,29.99,WNW,289,7.0,12.0,70,-99.99,,,-99.99,,2013-07-05 08:12:00,
2013-07-05 01:22:00,60.0,51.0,29.99,WNW,285,7.0,14.0,71,-99.99,,,-99.99,,2013-07-05 08:22:00,
2013-07-05 01:33:00,60.0,50.0,29.99,West,280,8.0,15.0,71,-99.99,,,-99.99,,2013-07-05 08:33:00,
2013-07-05 01:43:00,59.0,50.0,29.99,West,276,9.0,14.0,72,-99.99,,,-99.99,,2013-07-05 08:43:00,
2013-07-05 01:53:00,60.0,51.0,29.99,West,273,9.0,17.0,72,-99.99,,,-99.99,,2013-07-05 08:53:00,
2013-07-05 02:04:00,60.0,51.0,29.99,WNW,282,10.0,15.0,72,-99.99,,,-99.99,,2013-07-05 09:04:00,
2013-07-05 02:24:00,59.0,50.0,29.99,West,273,11.0,18.0,71,-99.99,,,-99.99,,2013-07-05 09:24:00,
2013-07-05 02:35:00,59.0,50.0,29.99,West,276,11.0,17.0,72,-99.99,,,-99.99,,2013-07-05 09:35:00,
2013-07-05 02:45:00,59.0,50.0,29.99,WNW,283,10.0,16.0,72,-99.99,,,-99.99,,2013-07-05 09:45:00,
2013-07-05 02:53:00,59.0,50.0,29.98,West,279,10.0,16.0,71,-99.99,,,-99.99,,2013-07-05 09:53:00,
2013-07-05 03:04:00,59.0,50.0,29.98,WNW,284,9.0,14.0,71,-99.99,,,-99.99,,2013-07-05 10:04:00,
2013-07-05 03:14:00,59.0,50.0,29.98,West,270,7.0,13.0,72,-99.99,,,-99.99,,2013-07-05 10:14:00,
2013-07-05 03:23:00,59.0,50.0,29.99,WNW,283,8.0,14.0,72,-99.99,,,-99.99,,2013-07-05 10:23:00,
2013-07-05 03:35:00,58.0,50.0,29.98,West,278,10.0,20.0,72,-99.99,,,-99.99,,2013-07-05 10:35:00,
2013-07-05 03:45:00,58.0,50.0,29.98,West,270,10.0,21.0,72,-99.99,,,-99.99,,2013-07-05 10:45:00,
2013-07-05 03:55:00,58.0,50.0,29.98,West,272,10.0,21.0,72,-99.99,,,-99.99,,2013-07-05 10:55:00,
2013-07-05 04:04:00,58.0,50.0,29.98,West,270,11.0,18.0,73,-99.99,,,-99.99,,2013-07-05 11:04:00,
2013-07-05 04:14:00,59.0,50.0,29.97,West,267,12.0,20.0,72,-99.99,,,-99.99,,2013-07-05 11:14:00,
2013-07-05 04:36:00,59.0,49.0,29.97,West,273,10.0,16.0,70,-99.99,,,-99.99,,2013-07-05 11:36:00,
2013-07-05 04:45:00,59.0,49.0,29.97,West,266,11.0,17.0,70,-99.99,,,-99.99,,2013-07-05 11:45:00,
2013-07-05 05:04:00,59.0,49.0,29.97,West,266,10.0,17.0,69,-99.99,,,-99.99,,2013-07-05 12:04:00,
2013-07-05 05:12:00,59.0,49.0,29.97,West,263,11.0,24.0,68,-99.99,,,-99.99,,2013-07-05 12:12:00,
2013-07-05 05:24:00,59.0,49.0,29.97,West,273,11.0,17.0,69,-99.99,,,-99.99,,2013-07-05 12:24:00,
2013-07-05 05:34:00,59.0,49.0,29.97,West,275,12.0,20.0,71,-99.99,,,-99.99,,2013-07-05 12:34:00,
2013-07-05 05:44:00,58.0,49.0,29.97,West,264,10.0,18.0,71,-99.99,,,-99.99,,2013-07-05 12:44:00,
2013-07-05 05:54:00,58.0,49.0,29.97,West,259,9.0,15.0,72,-99.99,,,-99.99,,2013-07-05 12:54:00,
2013-07-05 06:04:00,58.0,50.0,29.97,WSW,258,8.0,15.0,72,-99.99,,,-99.99,,2013-07-05 13:04:00,
2013-07-05 06:46:00,58.0,48.0,29.98,West,261,9.0,20.0,69,-99.99,,,-99.99,,2013-07-05 13:46:00,
2013-07-05 06:54:00,58.0,48.0,29.98,WSW,255,10.0,15.0,70,-99.99,,,-99.99,,2013-07-05 13:54:00,
2013-07-05 07:05:00,59.0,49.0,29.98,West,261,10.0,18.0,69,-99.99,,,-99.99,,2013-07-05 14:05:00,
2013-07-05 07:12:00,59.0,49.0,29.98,West,264,10.0,16.0,69,-99.99,,,-99.99,,2013-07-05 14:12:00,
2013-07-05 07:36:00,60.0,48.0,29.99,West,264,10.0,16.0,66,-99.99,,,-99.99,,2013-07-05 14:36:00,
2013-07-05 07:44:00,60.0,48.0,29.99,West,264,9.0,14.0,66,-99.99,,,-99.99,,2013-07-05 14:44:00,
2013-07-05 07:54:00,60.0,48.0,29.99,West,264,12.0,24.0,65,-99.99,,,-99.99,,2013-07-05 14:54:00,
2013-07-05 08:04:00,60.0,48.0,29.99,West,266,9.0,16.0,65,-99.99,,,-99.99,,2013-07-05 15:04:00,
2013-07-05 08:22:00,60.0,49.0,29.99,West,267,13.0,24.0,65,-99.99,,,-99.99,,2013-07-05 15:22:00,
2013-07-05 08:33:00,61.0,49.0,29.99,West,267,10.0,20.0,64,-99.99,,,-99.99,,2013-07-05 15:33:00,
2013-07-05 08:43:00,61.0,49.0,29.98,West,266,10.0,19.0,62,-99.99,,,-99.99,,2013-07-05 15:43:00,
2013-07-05 09:01:00,62.0,48.0,29.98,West,267,13.0,30.0,61,-99.99,,,-99.99,,2013-07-05 16:01:00,
2013-07-05 09:11:00,62.0,49.0,29.98,West,269,14.0,26.0,60,-99.99,,,-99.99,,2013-07-05 16:11:00,
2013-07-05 09:22:00,62.0,48.0,29.98,West,264,11.0,20.0,59,-99.99,,,-99.99,,2013-07-05 16:22:00,
2013-07-05 09:33:00,63.0,49.0,29.98,West,270,13.0,22.0,59,-99.99,,,-99.99,,2013-07-05 16:33:00,
2013-07-05 09:44:00,63.0,48.0,29.98,West,275,11.0,19.0,59,-99.99,,,-99.99,,2013-07-05 16:44:00,
2013-07-05 09:53:00,63.0,49.0,29.98,West,268,10.0,20.0,59,-99.99,,,-99.99,,2013-07-05 16:53:00,
2013-07-05 10:01:00,63.0,49.0,29.98,West,275,10.0,20.0,58,-99.99,,,-99.99,,2013-07-05 17:01:00,
2013-07-05 10:12:00,63.0,49.0,29.98,West,276,14.0,24.0,58,-99.99,,,-99.99,,2013-07-05 17:12:00,
2013-07-05 10:22:00,63.0,49.0,29.98,West,274,11.0,20.0,58,-99.99,,,-99.99,,2013-07-05 17:22:00,
2013-07-05 10:33:00,64.0,49.0,29.98,West,272,9.0,21.0,57,-99.99,,,-99.99,,2013-07-05 17:33:00,
2013-07-05 10:43:00,64.0,48.0,29.98,WNW,283,11.0,20.0,56,-99.99,,,-99.99,,2013-07-05 17:43:00,
2013-07-05 10:53:00,64.0,49.0,29.98,WNW,289,11.0,20.0,57,-99.99,,,-99.99,,2013-07-05 17:53:00,
2013-07-05 11:01:00,65.0,48.0,29.98,West,275,11.0,23.0,55,-99.99,,,-99.99,,2013-07-05 18:01:00,
2013-07-05 11:11:00,65.0,49.0,29.97,West,277,10.0,18.0,55,-99.99,,,-99.99,,2013-07-05 18:11:00,
2013-07-05 11:22:00,65.0,49.0,29.97,West,279,11.0,20.0,54,-99.99,,,-99.99,,2013-07-05 18:22:00,
2013-07-05 11:33:00,66.0,49.0,29.97,West,278,12.0,21.0,54,-99.99,,,-99.99,,2013-07-05 18:33:00,
2013-07-05 11:43:00,67.0,49.0,29.97,West,274,13.0,25.0,53,-99.99,,,-99.99,,2013-07-05 18:43:00,
2013-07-05 11:53:00,67.0,49.0,29.97,West,275,11.0,22.0,52,-99.99,,,-99.99,,2013-07-05 18:53:00,
2013-07-05 12:01:00,67.0,49.0,29.97,West,264,12.0,22.0,53,-99.99,,,-99.99,,2013-07-05 19:01:00,
2013-07-05 12:12:00,67.0,49.0,29.97,West,270,13.0,23.0,52,-99.99,,,-99.99,,2013-07-05 19:12:00,
2013-07-05 12:33:00,67.0,49.0,29.96,West,270,15.0,26.0,51,-99.99,,,-99.99,,2013-07-05 19:33:00,
2013-07-05 12:42:00,68.0,49.0,29.96,WSW,258,12.0,23.0,51,-99.99,,,-99.99,,2013-07-05 19:42:00,
2013-07-05 12:52:00,68.0,49.0,29.96,West,276,13.0,24.0,50,-99.99,,,-99.99,,2013-07-05 19:52:00,
2013-07-05 13:01:00,69.0,50.0,29.96,WSW,258,13.0,23.0,50,-99.99,,,-99.99,,2013-07-05 20:01:00,
2013-07-05 13:11:00,69.0,49.0,29.96,West,272,14.0,25.0,49,-99.99,,,-99.99,,2013-07-05 20:11:00,
2013-07-05 13:22:00,69.0,49.0,29.96,West,272,14.0,25.0,49,-99.99,,,-99.99,,2013-07-05 20:22:00,
2013-07-05 13:33:00,68.0,49.0,29.96,West,266,14.0,25.0,50,-99.99,,,-99.99,,2013-07-05 20:33:00,
2013-07-05 13:43:00,69.0,49.0,29.96,West,276,15.0,27.0,49,-99.99,,,-99.99,,2013-07-05 20:43:00,
2013-07-05 13:53:00,69.0,50.0,29.96,West,278,13.0,26.0,49,-99.99,,,-99.99,,2013-07-05 20:53:00,
2013-07-05 14:01:00,69.0,49.0,29.95,West,277,14.0,27.0,49,-99.99,,,-99.99,,2013-07-05 21:01:00,
2013-07-05 14:11:00,71.0,50.0,29.95,West,273,11.0,22.0,48,-99.99,,,-99.99,,2013-07-05 21:11:00,
2013-07-05 14:21:00,70.0,50.0,29.95,West,275,14.0,22.0,48,-99.99,,,-99.99,,2013-07-05 21:21:00,
2013-07-05 14:34:00,70.0,50.0,29.94,West,272,14.0,27.0,48,-99.99,,,-99.99,,2013-07-05 21:34:00,
2013-07-05 14:42:00,70.0,49.0,29.94,West,277,15.0,25.0,48,-99.99,,,-99.99,,2013-07-05 21:42:00,
2013-07-05 14:53:00,70.0,50.0,29.94,West,272,17.0,35.0,49,-99.99,,,-99.99,,2013-07-05 21:53:00,
2013-07-05 15:01:00,70.0,49.0,29.94,West,273,15.0,28.0,48,-99.99,,,-99.99,,2013-07-05 22:01:00,
2013-07-05 15:11:00,70.0,50.0,29.94,West,276,16.0,29.0,48,-99.99,,,-99.99,,2013-07-05 22:11:00,
2013-07-05 15:21:00,71.0,51.0,29.94,West,272,12.0,27.0,49,-99.99,,,-99.99,,2013-07-05 22:21:00,
2013-07-05 15:33:00,71.0,50.0,29.94,West,268,12.0,23.0,47,-99.99,,,-99.99,,2013-07-05 22:33:00,
2013-07-05 15:43:00,72.0,50.0,29.94,West,267,10.0,20.0,46,-99.99,,,-99.99,,2013-07-05 22:43:00,
2013-07-05 15:53:00,72.0,50.0,29.94,West,273,14.0,27.0,45,-99.99,,,-99.99,,2013-07-05 22:53:00,
2013-07-05 16:02:00,72.0,50.0,29.93,West,267,13.0,22.0,46,-99.99,,,-99.99,,2013-07-05 23:02:00,
2013-07-05 16:23:00,72.0,51.0,29.93,West,267,12.0,26.0,46,-99.99,,,-99.99,,2013-07-05 23:23:00,
2013-07-05 16:32:00,72.0,50.0,29.93,West,267,13.0,27.0,45,-99.99,,,-99.99,,2013-07-05 23:32:00,
2013-07-05 16:43:00,72.0,50.0,29.92,West,272,13.0,24.0,45,-99.99,,,-99.99,,2013-07-05 23:43:00,
2013-07-05 16:53:00,72.0,50.0,29.92,West,271,15.0,26.0,45,-99.99,,,-99.99,,2013-07-05 23:53:00,
2013-07-05 17:01:00,73.0,51.0,29.91,West,272,11.0,25.0,46,-99.99,,,-99.99,,2013-07-06 00:01:00,
2013-07-05 17:11:00,73.0,51.0,29.91,West,270,14.0,24.0,45,-99.99,,,-99.99,,2013-07-06 00:11:00,
2013-07-05 17:22:00,73.0,51.0,29.91,West,270,14.0,24.0,45,-99.99,,,-99.99,,2013-07-06 00:22:00,
2013-07-05 17:42:00,73.0,50.0,29.91,West,271,13.0,26.0,45,-99.99,,,-99.99,,2013-07-06 00:42:00,
2013-07-05 17:53:00,73.0,51.0,29.90,West,267,13.0,23.0,46,-99.99,,,-99.99,,2013-07-06 00:53:00,
2013-07-05 18:01:00,73.0,51.0,29.90,West,261,11.0,21.0,46,-99.99,,,-99.99,,2013-07-06 01:01:00,
2013-07-05 18:12:00,73.0,51.0,29.90,West,275,11.0,21.0,46,-99.99,,,-99.99,,2013-07-06 01:12:00,
2013-07-05 18:33:00,72.0,51.0,29.89,West,278,12.0,25.0,47,-99.99,,,-99.99,,2013-07-06 01:33:00,
2013-07-05 18:42:00,72.0,51.0,29.89,West,281,13.0,21.0,47,-99.99,,,-99.99,,2013-07-06 01:42:00,
2013-07-05 18:53:00,72.0,51.0,29.89,West,271,15.0,29.0,46,-99.99,,,-99.99,,2013-07-06 01:53:00,
2013-07-05 19:02:00,72.0,50.0,29.89,West,276,12.0,25.0,47,-99.99,,,-99.99,,2013-07-06 02:02:00,
2013-07-05 19:11:00,72.0,51.0,29.89,West,275,12.0,22.0,47,-99.99,,,-99.99,,2013-07-06 02:11:00,
2013-07-05 19:22:00,71.0,50.0,29.89,West,270,14.0,24.0,47,-99.99,,,-99.99,,2013-07-06 02:22:00,
2013-07-05 19:33:00,71.0,50.0,29.89,West,269,11.0,22.0,47,-99.99,,,-99.99,,2013-07-06 02:33:00,
2013-07-05 19:43:00,71.0,51.0,29.89,West,265,12.0,23.0,48,-99.99,,,-99.99,,2013-07-06 02:43:00,
2013-07-05 19:52:00,71.0,50.0,29.89,West,265,10.0,18.0,48,-99.99,,,-99.99,,2013-07-06 02:52:00,
2013-07-05 20:02:00,70.0,50.0,29.89,West,261,13.0,23.0,48,-99.99,,,-99.99,,2013-07-06 03:02:00,
2013-07-05 20:11:00,70.0,50.0,29.90,West,268,14.0,23.0,49,-99.99,,,-99.99,,2013-07-06 03:11:00,
2013-07-05 20:22:00,70.0,50.0,29.90,West,268,14.0,25.0,50,-99.99,,,-99.99,,2013-07-06 03:22:00,
2013-07-05 20:34:00,70.0,50.0,29.90,West,267,11.0,23.0,50,-99.99,,,-99.99,,2013-07-06 03:34:00,
2013-07-05 20:43:00,70.0,50.0,29.90,West,270,10.0,21.0,49,-99.99,,,-99.99,,2013-07-06 03:43:00,
2013-07-05 20:52:00,69.0,50.0,29.90,West,260,10.0,23.0,49,-99.99,,,-99.99,,2013-07-06 03:52:00,
2013-07-05 21:01:00,69.0,50.0,29.90,WSW,257,9.0,22.0,51,-99.99,,,-99.99,,2013-07-06 04:01:00,
2013-07-05 21:12:00,68.0,50.0,29.90,WSW,253,8.0,18.0,52,-99.99,,,-99.99,,2013-07-06 04:12:00,
2013-07-05 21:33:00,68.0,50.0,29.91,WSW,249,8.0,17.0,53,-99.99,,,-99.99,,2013-07-06 04:33:00,
2013-07-05 21:43:00,67.0,50.0,29.91,WSW,253,8.0,16.0,54,-99.99,,,-99.99,,2013-07-06 04:43:00,
2013-07-05 21:53:00,67.0,50.0,29.91,SW,232,6.0,12.0,54,-99.99,,,-99.99,,2013-07-06 04:53:00,
2013-07-05 22:02:00,67.0,50.0,29.92,SW,229,6.0,12.0,55,-99.99,,,-99.99,,2013-07-06 05:02:00,
2013-07-05 22:12:00,66.0,50.0,29.92,SW,235,7.0,13.0,55,-99.99,,,-99.99,,2013-07-06 05:12:00,
2013-07-05 22:33:00,66.0,50.0,29.92,WSW,244,6.0,13.0,56,-99.99,,,-99.99,,2013-07-06 05:33:00,
2013-07-05 22:42:00,66.0,50.0,29.93,WSW,237,7.0,13.0,57,-99.99,,,-99.99,,2013-07-06 05:42:00,
2013-07-05 22:53:00,66.0,50.0,29.93,SW,228,5.0,11.0,57,-99.99,,,-99.99,,2013-07-06 05:53:00,
2013-07-05 23:01:00,65.0,50.0,29.93,SW,229,5.0,10.0,58,-99.99,,,-99.99,,2013-07-06 06:01:00,
2013-07-05 23:12:00,65.0,50.0,29.93,SW,226,5.0,8.0,58,-99.99,,,-99.99,,2013-07-06 06:12:00,
2013-07-05 23:34:00,65.0,50.0,29.93,WSW,242,5.0,8.0,58,-99.99,,,-99.99,,2013-07-06 06:34:00,
2013-07-05 23:43:00,64.0,50.0,29.93,WSW,251,4.0,10.0,60,-99.99,,,-99.99,,2013-07-06 06:43:00,
2013-07-05 23:53:00,64.0,50.0,29.93,SW,234,4.0,7.0,60,-99.99,,,-99.99,,2013-07-06 06:53:00,